This is the latest recevied weather packets stored in our database for station/object KB4RFE. If no packets are shown the sender has not sent any weather packets the latest 10 day(s).
| Time | Temp. | Humidity | Pressure | Rain* | Wind** | Luminosity | Snow |
|---|---|---|---|---|---|---|---|
| 1788544100 | 31.67° C | 75% | 1019.2 hPa | 0 mm | - | 818 W/m² | - |
| 1788543797 | 31.67° C | 74% | 1019.4 hPa | 0 mm | - | 817 W/m² | - |
| 1788543493 | 31.67° C | 74% | 1019.5 hPa | 0 mm | - | 815 W/m² | - |
| 1788543188 | 31.67° C | 75% | 1019.4 hPa | 0 mm | - | 817 W/m² | - |
| 1788542884 | 31.67° C | 73% | 1019.4 hPa | 0 mm | - | 818 W/m² | - |
| 1788542583 | 31.67° C | 74% | 1019.5 hPa | 0 mm | - | 819 W/m² | - |
| 1788542278 | 31.67° C | 74% | 1019.5 hPa | 0 mm | - | 817 W/m² | - |
| 1788541973 | 31.67° C | 73% | 1019.6 hPa | 0 mm | - | 816 W/m² | - |
| 1788541669 | 31.67° C | 75% | 1019.8 hPa | 0 mm | - | 813 W/m² | - |
| 1788541365 | 31.67° C | 72% | 1019.8 hPa | 0 mm | - | 809 W/m² | - |
| 1788541064 | 31.67° C | 74% | 1019.8 hPa | 0 mm | - | 811 W/m² | - |
| 1788540758 | 31.67° C | 73% | 1019.8 hPa | 0 mm | - | 809 W/m² | - |
| 1788540458 | 31.67° C | 74% | 1019.9 hPa | 0 mm | - | 796 W/m² | - |
| 1788540153 | 32.22° C | 75% | 1019.9 hPa | 0 mm | - | 804 W/m² | - |
| 1788539850 | 32.22° C | 74% | 1020 hPa | 0 mm | - | 811 W/m² | - |
| 1788539545 | 32.22° C | 74% | 1020 hPa | 0 mm | - | 797 W/m² | - |
| 1788539244 | 32.22° C | 73% | 1020.1 hPa | 0 mm | - | 782 W/m² | - |
| 1788538939 | 31.67° C | 72% | 1020.2 hPa | 0 mm | - | 769 W/m² | - |
| 1788538634 | 32.22° C | 72% | 1020.1 hPa | 0 mm | - | 765 W/m² | - |
| 1788538329 | 32.22° C | 70% | 1020.3 hPa | 0 mm | - | 759 W/m² | - |
| 1788538025 | 32.22° C | 70% | 1020.2 hPa | 0 mm | - | 754 W/m² | - |
| 1788537720 | 32.78° C | 71% | 1020.4 hPa | 0 mm | - | 751 W/m² | - |
| 1788537415 | 32.22° C | 72% | 1020.4 hPa | 0 mm | - | 746 W/m² | - |
| 1788537114 | 32.22° C | 71% | 1020.2 hPa | 0 mm | - | 741 W/m² | - |
| 1788536813 | 32.78° C | 68% | 1020.3 hPa | 0 mm | - | 736 W/m² | - |
* Rain latest hour (hover to see other rain measurements)
** Current wind speed in m/s (hover to see current wind gust speed)